Skip Page Navigation
NASA JPL Caltech
NASA Logo - Jet Propulsion Laboratory + View the NASA Portal
+ Near-Earth Object (NEO) Program
Search JPL
JPL Home Earth Solar System Stars & Galaxies Technology
JPL Solar System Dynamics
BODIES ORBITS EPHEMERIDES TOOLS PHYSICAL DATA DISCOVERY FAQ SITE MAP
JPL Small-Body Database Browser
Search: [ help ]  
14994 Uppenkamp (1997 UW18)
Classification: Outer Main-belt Asteroid          SPK-ID: 2014994
Ephemeris | Orbit Diagram | Orbital Elements | Physical Parameters | Discovery Circumstances | Close-Approach Data ]

[ hide orbit diagram ]
Orbit Diagram
Note: Make sure you have Java enabled on your browser to see the applet. This applet is provided as a 3D orbit visualization tool. The applet was implemented using 2-body methods, and hence should not be used for determining accurate long-term trajectories (over several years or decades) or planetary encounter circumstances. For accurate long-term ephemerides, please instead use our Horizons system.
Orbit Viewer

Additional Notes: the orbits shown in the applet are color coded. The planets are white lines, and the asteroid/comet is a blue line. The bright white line indicates the portion of the orbit that is above the ecliptic plane, and the darker portion is below the ecliptic plane. Likewise for the asteroid/comet orbit, the light blue indicates the portion above the ecliptic plane, and the dark blue the portion below the ecliptic plane.

Orbit Viewer applet originally written and kindly provided by Osamu Ajiki (AstroArts), and further modified by Ron Baalke (JPL).


Orbital Elements at Epoch 2456400.5 (2013-Apr-18.0) TDB
Reference: JPL 1 (heliocentric ecliptic J2000)
 Element Value Uncertainty (1-sigma)   Units 
e .0225702377499714 8.8817e-08  
a 3.399124774178569 5.1526e-08 AU
q 3.322405719883541 3.0777e-07 AU
i 9.21304955734559 9.8696e-06 deg
node 62.43166951238899 5.7445e-05 deg
peri 102.9199173726618 0.00023119 deg
M 51.68797125216656 0.00022117 deg
tp 2456071.848156385395
(2012-May-24.34815639)
0.0014072 JED
period 2289.017363905502
6.27
5.2048e-05
1.425e-07
d
yr
n .1572727257017269 3.5761e-09 deg/d
Q 3.475843828473597 5.2689e-08 AU
  Orbit Determination Parameters
   # obs. used (total)      745  
   data-arc span      21242 days (58.16 yr)  
   first obs. used      1955-02-24  
   last obs. used      2013-04-22  
   planetary ephem.      DE405  
   SB-pert. ephem.      SB405-CPV-2  
   condition code      0  
   fit RMS      .57763  
   data source      ORB  
   producer      Otto Matic  
   solution date      2013-Apr-29 13:57:53  

Additional Information
 Earth MOID = 2.34133 AU 
 T_jup = 3.126 
[ show covariance matrix ]

Ephemeris | Orbit Diagram | Orbital Elements | Physical Parameters | Discovery Circumstances | Close-Approach Data ]

Physical Parameter Table
Parameter Symbol Value Units Sigma Reference Notes
absolute magnitude H 12.2 mag n/a PDS3 (MPO 60)  

14994 Uppenkamp           Discovered 1997 Oct. 28 by Spacewatch at Kitt Peak.
Wolfgang Uppenkamp (b. 1953) teaches literature in English and German at the Pascal-Gymnasium in Grevenbroich, North-Rhine Westphalia. He uses innovative media to inspire his students.
NOTE: some special characters may not display properly (any characters within {} are an attempt to place the proper accent above a character)
Reference: 20030614/MPCPages.arcLast Updated: 2005-04-26

[ show close-approach data ]
Alternate Designations
 1997 UW18 = 1994 GZ11 = 1999 CL17 
Ephemeris | Orbit Diagram | Orbital Elements | Physical Parameters | Discovery Circumstances | Close-Approach Data ]
ABOUT SSD CREDITS/AWARDS PRIVACY/COPYRIGHT GLOSSARY LINKS
FirstGov 2013-May-22 18:01 UT
(server date/time)  
NASA Home Page
Site Manager:   Donald K. Yeomans
Webmaster  Alan B. Chamberlin